Theta_e
370 365 361 360 358 353 350 343 317 321 312 306 308 312 311 322 322 321 321 324 321 328 327 327 325 325 323 323 329 330 331 327 328 312 312 332 347 350 353 353 353 354 353 355 356 357 358 360 360 362 363 363 363 363 362 365 366 365 364 365 365 367 368 368 366 366 365 365 365 364 364 364 365 366 367 367 367 368 369 368 368 368 369 369 370 370 370 370 370 369 369 368 367 367 367 365 365
366 362 358 360 355 355 339 339 315 308 310 309 309 312 314 319 320 319 320 322 324 328 332 332 332 333 333 332 333 331 330 334 336 333 339 345 351 350 353 353 353 353 353 354 356 356 355 360 359 361 360 362 363 362 362 362 364 365 363 365 365 367 367 368 367 365 364 365 365 364 364 364 365 366 366 366 367 368 368 368 368 368 369 369 370 369 369 370 369 369 369 367 366 358 365 366 363
360 357 355 357 356 346 340 333 310 304 306 304 309 312 320 319 319 322 325 326 330 332 333 332 332 331 329 329 325 325 319 339 338 340 339 347 343 345 354 355 355 355 355 356 356 355 355 358 356 360 360 360 364 364 361 360 359 361 365 365 366 366 366 368 366 364 363 364 364 364 364 364 364 365 366 367 367 368 368 368 369 369 369 369 369 368 369 370 369 368 368 367 363 360 358 359 363
359 358 352 354 340 343 326 321 308 306 305 304 307 316 319 321 322 325 328 330 331 331 331 329 326 332 326 323 326 333 331 332 340 340 337 343 345 350 353 354 357 357 354 354 355 354 354 356 356 359 358 354 361 365 362 361 359 361 365 365 364 364 364 365 364 363 364 364 364 364 364 364 364 365 366 367 368 367 367 368 369 369 369 369 369 369 368 368 367 368 368 368 363 361 360 362 361
358 361 358 349 338 329 324 317 306 305 305 303 306 315 322 324 324 326 327 329 329 330 330 329 327 333 331 327 331 325 327 338 340 343 343 347 352 353 352 353 357 356 352 355 355 353 353 355 358 360 356 358 361 365 364 362 361 363 364 366 365 364 365 363 364 364 365 364 364 364 363 363 365 366 368 368 368 367 367 368 369 369 369 369 368 367 366 365 365 366 366 365 363 361 362 359 357
351 348 351 348 335 338 324 310 307 306 310 310 312 315 323 326 324 324 326 329 331 331 330 328 325 327 326 330 334 330 337 329 340 343 347 346 352 355 354 355 358 356 355 354 355 354 355 358 359 356 359 359 359 364 365 364 364 365 365 365 366 366 365 364 365 364 364 364 364 364 363 363 365 366 368 367 366 366 366 368 368 369 368 367 366 365 364 364 363 363 363 365 364 363 362 360 357
347 342 340 343 336 332 312 305 304 305 311 317 317 319 323 324 324 326 326 326 329 330 332 328 330 327 324 331 334 338 342 344 341 344 350 351 355 356 356 358 358 356 355 355 355 355 356 362 362 359 359 359 364 367 366 364 364 367 367 366 366 367 366 365 365 365 364 364 364 363 363 363 364 365 366 367 366 365 365 366 367 366 366 365 365 364 364 363 363 362 362 363 364 363 363 361 358
352 338 336 327 319 310 304 304 306 305 314 321 322 321 322 323 325 325 323 323 322 323 327 330 331 326 326 335 324 337 344 349 349 352 353 353 354 356 358 358 356 357 357 356 356 355 358 362 363 364 364 365 367 366 365 363 363 365 366 366 366 364 364 366 365 365 364 364 364 363 363 364 364 365 365 366 366 366 365 365 365 364 364 364 363 363 362 362 362 362 362 363 363 363 360 361 361
341 336 333 322 309 307 303 304 308 315 317 321 322 326 329 325 325 323 323 325 327 328 329 329 327 320 325 329 328 337 344 350 352 355 354 353 353 356 358 358 356 356 357 358 356 354 356 363 364 366 366 366 366 363 363 360 361 364 362 363 363 364 365 366 365 364 364 364 363 363 364 365 365 364 365 366 365 364 363 362 362 362 362 363 363 362 362 362 362 362 362 362 362 362 362 363 362
336 331 321 320 309 305 303 304 309 313 317 321 323 324 324 325 325 327 325 324 326 328 329 334 330 324 330 326 330 335 341 350 352 352 354 354 356 357 356 357 357 357 358 360 359 357 358 365 361 363 364 362 363 364 365 364 364 365 365 365 366 364 364 363 364 365 364 364 364 364 365 365 365 366 365 364 363 361 361 362 362 362 363 362 362 363 364 364 363 363 363 362 362 362 362 363 361
327 331 328 311 304 301 303 303 307 314 318 322 324 326 327 328 326 325 326 326 329 328 331 333 328 327 329 331 331 343 348 349 348 348 354 355 356 356 357 359 360 361 359 359 360 361 359 361 359 362 365 365 370 369 366 365 366 366 366 365 365 364 364 364 365 365 364 364 365 366 367 366 364 363 363 362 362 362 362 363 363 363 362 362 363 364 365 365 365 365 362 360 363 364 363 362 360
319 320 318 305 304 302 303 305 307 309 317 320 319 326 329 328 329 325 326 324 327 328 327 330 326 332 328 329 330 342 346 346 347 351 354 356 356 357 358 360 360 362 362 359 360 359 360 359 362 366 367 368 367 366 366 366 366 365 362 363 365 366 366 366 365 366 365 366 365 365 364 364 362 362 363 363 363 363 363 363 362 362 361 362 363 363 364 365 365 363 363 362 364 364 364 361 361
324 317 310 306 307 305 307 306 306 313 313 316 321 325 330 328 325 326 326 328 328 325 326 331 334 333 324 328 337 342 342 345 349 352 355 355 356 357 359 358 360 361 361 359 358 358 358 359 363 366 365 366 366 366 365 365 366 366 366 366 367 366 368 368 366 367 365 365 365 364 364 363 362 364 362 363 363 362 362 362 361 362 363 363 364 364 364 364 364 364 363 359 361 364 364 363 359
327 320 313 311 312 306 305 307 310 309 309 317 324 328 329 326 327 329 329 325 326 324 330 336 335 335 330 333 335 336 340 347 350 353 355 354 354 355 358 358 358 361 361 361 358 357 357 357 357 362 362 361 362 364 365 364 365 365 364 363 365 366 365 365 366 365 366 366 364 363 364 363 363 364 363 363 362 362 362 361 361 362 363 363 364 365 365 364 364 360 355 356 357 361 364 362 360
329 321 313 309 308 307 310 308 309 310 309 318 325 327 327 330 330 330 328 325 325 335 337 340 337 329 323 327 328 335 341 347 351 354 353 352 353 354 356 356 357 358 359 359 360 357 354 356 358 358 360 355 359 362 361 362 365 364 363 364 365 364 364 368 367 367 365 364 364 364 364 364 364 364 363 362 362 362 362 361 361 362 363 364 364 364 364 364 360 358 356 353 355 360 360 359 360
331 316 312 311 306 306 308 309 308 310 311 321 326 327 326 328 331 327 328 331 330 336 336 329 339 327 331 330 332 340 345 349 353 354 351 350 352 353 353 353 357 358 357 358 357 357 356 355 356 356 356 358 360 361 362 362 365 364 363 365 363 365 365 365 365 364 364 362 363 362 362 365 364 364 364 363 363 362 362 362 362 362 362 363 365 362 365 364 361 354 355 356 356 357 356 355 355
321 319 313 305 307 307 308 309 309 306 311 323 324 327 323 324 330 332 336 336 330 330 331 335 333 338 333 334 340 345 348 352 353 351 350 349 350 350 351 353 354 353 355 358 357 357 358 357 357 356 357 359 359 357 361 361 365 363 364 364 365 365 363 364 363 363 362 362 362 362 363 365 359 360 361 360 363 366 366 364 364 363 361 361 362 361 360 364 362 354 355 355 356 356 355 356 357
320 313 307 307 306 308 312 312 312 314 317 322 323 326 325 323 327 330 334 330 330 329 330 334 337 337 340 342 345 349 351 350 349 348 347 346 348 347 347 349 351 351 353 355 357 358 359 359 359 360 360 361 360 360 363 362 363 365 362 364 364 363 362 364 364 364 364 363 364 364 361 362 354 353 354 363 364 364 364 364 363 363 362 361 361 362 361 364 365 357 353 354 355 356 357 354 352
316 309 308 308 307 313 316 315 315 317 319 321 326 327 327 325 328 330 326 324 326 326 329 333 333 337 341 343 346 348 349 348 348 347 345 345 345 344 345 347 349 351 351 355 356 358 360 361 362 359 360 362 362 360 362 363 360 362 360 361 362 366 367 366 362 366 360 359 360 359 361 358 354 358 359 360 361 362 364 362 361 361 363 364 365 365 364 365 364 363 358 354 358 360 351 349 349
316 312 309 307 313 315 316 317 316 320 321 321 324 326 326 327 329 331 325 323 325 324 326 330 332 333 337 341 345 346 347 347 347 346 345 344 345 345 344 345 347 349 350 353 356 359 360 361 361 361 362 362 359 359 361 359 361 361 360 360 361 362 362 362 359 359 358 358 358 358 358 357 358 355 362 362 363 364 359 363 365 364 365 365 365 359 360 359 360 357 356 355 356 355 350 350 351
316 314 310 312 313 314 317 319 318 319 323 324 325 325 325 328 329 328 325 322 322 324 330 329 331 334 338 341 343 345 345 345 345 346 345 344 345 346 346 347 348 350 352 354 357 357 359 360 361 361 364 363 362 360 360 358 358 357 360 360 360 360 359 359 358 357 358 357 356 358 354 358 355 353 353 355 357 356 355 352 350 349 352 352 358 347 348 348 350 347 347 350 349 350 350 349 349
316 316 318 314 314 315 317 319 319 320 323 325 324 323 325 330 329 326 325 319 319 324 329 332 336 338 339 340 342 344 343 343 344 344 344 344 344 344 346 347 349 351 353 353 354 357 359 361 362 363 364 364 364 361 360 361 362 359 358 359 358 359 358 359 358 358 358 357 357 357 359 356 352 353 352 353 354 354 353 352 350 349 349 349 351 346 346 347 347 346 346 346 347 347 347 348 349
311 311 315 315 317 317 318 319 319 322 322 322 322 325 329 327 326 327 326 322 324 330 332 335 339 340 342 343 343 342 342 342 343 343 344 343 344 345 345 347 347 347 350 351 354 357 360 361 360 361 362 363 363 362 360 362 361 360 359 359 359 357 358 358 357 357 358 357 357 359 358 354 352 351 351 352 352 352 351 351 350 347 346 346 348 346 344 345 346 346 345 346 346 346 346 347 349
313 309 313 317 316 318 320 319 320 322 322 322 324 328 327 324 322 327 324 326 328 332 335 339 340 342 343 341 342 342 342 342 342 344 345 344 345 345 346 346 347 349 349 351 352 355 359 360 360 360 361 362 363 363 361 360 360 359 359 363 362 362 360 359 358 357 357 358 359 358 362 355 353 351 350 350 350 349 350 350 347 346 345 345 346 348 344 344 344 345 345 346 346 345 345 346 346
311 310 313 315 316 320 320 320 320 321 320 322 324 325 324 325 324 326 324 328 332 335 339 340 341 342 342 341 341 342 342 342 342 343 345 345 346 347 347 347 348 349 348 350 352 353 356 360 360 359 359 361 362 363 361 360 360 359 360 360 359 364 360 359 358 358 356 357 359 359 362 356 352 351 350 350 350 348 348 347 347 345 344 344 345 345 345 344 343 345 346 346 346 346 346 346 348
308 311 315 315 318 320 320 320 320 321 322 323 322 320 322 323 327 324 326 330 334 338 339 340 340 340 340 340 341 341 341 342 343 342 342 344 345 345 345 347 348 348 349 350 351 353 356 360 360 359 359 359 361 361 360 360 359 359 358 359 359 364 362 360 359 357 357 355 356 359 359 358 355 353 351 351 348 349 347 346 347 346 345 345 345 345 346 345 345 346 347 347 346 346 345 345 349
310 312 315 317 318 319 321 320 320 323 323 323 321 321 322 326 326 316 328 333 336 337 337 339 339 338 339 339 340 341 341 342 342 343 343 343 344 344 345 347 348 349 350 349 351 353 357 359 359 360 359 362 360 359 359 359 360 359 359 359 359 361 362 362 359 357 356 355 355 357 358 359 356 353 352 351 349 348 347 345 345 346 346 347 347 346 349 349 347 347 347 345 344 344 343 344 346
314 317 318 318 319 320 321 321 322 325 324 324 325 322 324 324 325 319 329 335 337 335 336 337 337 337 338 339 339 341 341 343 344 344 342 342 343 344 345 347 348 350 350 349 351 354 356 358 359 360 359 360 360 359 360 359 359 360 360 359 359 360 362 361 360 358 359 356 356 355 357 358 360 354 352 351 349 348 347 345 345 345 346 348 349 348 347 348 345 345 345 345 344 343 344 344 344
317 320 314 317 319 319 321 321 324 325 322 327 327 323 321 321 318 326 333 335 335 334 334 335 336 337 338 339 339 340 340 342 343 343 343 345 346 348 347 350 351 351 352 352 353 355 355 357 358 359 359 359 360 358 358 359 360 361 361 359 360 362 362 362 360 359 358 358 357 356 357 358 359 357 353 352 354 349 347 345 344 347 347 347 347 348 348 346 346 345 344 346 344 345 342 341 341
319 318 317 315 314 314 319 322 323 324 324 328 325 309 312 318 320 330 335 335 334 333 332 334 334 336 337 338 338 339 340 340 341 343 344 346 347 349 349 351 353 352 352 353 354 354 357 358 359 359 359 358 359 360 359 359 360 361 362 362 363 362 362 362 362 361 361 360 359 358 358 358 358 356 355 352 350 349 347 345 345 345 348 348 347 348 348 346 344 343 345 343 344 342 339 338 339
313 315 316 309 310 309 317 321 322 322 326 327 320 309 308 316 322 331 335 335 333 330 332 333 334 334 335 336 337 337 339 340 341 343 345 346 348 349 350 352 353 353 354 353 353 354 357 357 360 359 361 358 361 360 361 360 361 362 362 362 362 363 362 361 362 362 360 360 360 360 360 360 359 357 354 352 349 348 347 345 345 346 347 348 346 347 346 344 344 343 343 341 340 339 338 339 339
314 311 306 307 308 308 316 321 323 319 324 325 316 305 307 315 323 331 335 335 333 330 332 333 333 334 334 335 336 336 338 340 341 343 344 346 348 348 350 351 353 353 353 353 354 355 356 357 361 359 360 359 359 361 361 362 363 362 362 364 363 364 364 362 361 361 361 360 361 360 361 362 361 358 354 351 349 347 347 345 346 347 347 347 345 345 345 344 343 341 340 340 339 339 338 337 337
306 308 305 307 306 308 313 319 322 324 325 322 317 304 314 317 324 331 334 334 332 330 331 332 332 333 334 334 335 335 336 337 339 341 343 345 347 349 350 351 352 353 354 353 353 354 355 356 361 359 359 359 359 361 362 361 358 358 359 361 363 364 364 363 362 361 361 359 360 360 359 360 361 358 354 351 349 347 344 344 347 346 347 346 344 343 343 343 340 340 340 340 338 337 336 337 337
307 302 305 309 308 308 307 316 318 319 323 319 319 315 315 318 324 329 332 333 331 330 331 332 332 333 334 334 334 334 334 335 336 338 341 344 346 348 350 354 352 353 354 354 354 354 354 356 358 359 359 360 359 360 361 356 355 355 356 357 363 362 362 363 362 361 359 358 355 355 355 355 356 354 351 350 347 345 345 345 345 344 345 342 341 340 339 338 338 338 338 338 338 336 337 337 337
304 303 303 306 308 309 309 311 316 318 320 319 316 316 317 320 324 328 330 333 331 330 331 331 331 332 333 333 334 334 334 334 336 338 341 343 345 347 349 351 352 352 353 354 354 355 355 356 357 360 360 358 358 359 360 356 353 350 353 353 356 359 359 359 358 355 356 354 350 347 351 351 356 352 350 347 343 345 347 345 344 343 343 341 339 339 338 340 340 339 337 338 339 338 338 338 337
308 307 306 307 306 307 309 313 317 319 316 315 314 313 315 319 322 326 329 332 330 329 331 331 331 331 332 332 333 333 334 334 337 339 341 343 345 346 348 350 351 351 352 354 355 354 355 355 356 357 359 357 357 357 357 353 349 350 349 352 353 355 355 356 356 356 356 354 348 346 350 355 355 352 348 345 343 347 346 345 343 342 342 340 339 338 338 339 339 339 339 339 340 340 341 339 338
310 303 304 305 306 308 312 314 317 320 317 314 314 316 316 319 322 325 328 330 329 328 328 328 329 330 330 331 332 333 333 334 338 339 341 343 345 346 347 349 349 350 351 353 353 353 354 354 355 354 357 357 355 355 354 353 350 348 349 349 351 353 354 354 354 354 354 355 353 352 354 354 353 350 349 348 346 350 347 345 343 342 342 341 341 341 341 342 341 341 341 341 340 339 341 340 339
308 304 303 302 304 304 310 312 315 320 317 313 314 315 315 319 322 325 327 327 326 327 327 327 328 329 330 330 331 332 334 336 338 337 339 342 344 345 346 347 349 346 349 352 352 353 354 354 354 355 357 355 355 356 356 355 353 351 349 349 350 349 350 352 352 353 353 355 355 354 353 352 350 349 351 349 348 347 348 347 346 346 345 344 344 346 345 346 344 342 341 340 341 340 340 342 341
303 303 301 299 301 305 306 311 316 320 319 311 313 313 313 318 322 325 326 326 327 329 328 328 327 328 329 330 331 332 332 333 335 337 338 340 343 345 345 346 347 348 349 351 352 353 353 353 354 355 356 356 355 357 357 355 353 353 352 350 350 347 349 353 353 354 355 354 353 354 354 351 349 349 351 351 349 349 350 350 349 348 347 347 348 347 346 343 343 343 342 341 341 342 342 345 344
300 299 299 299 301 302 300 306 315 320 315 311 314 313 312 318 321 324 326 327 327 328 328 328 328 328 328 330 331 331 331 332 333 335 336 339 342 344 345 345 346 347 348 350 351 352 353 354 353 355 356 357 357 357 359 356 355 354 351 349 349 350 348 354 352 353 352 352 351 352 353 352 349 349 351 351 351 351 351 351 351 349 349 349 349 347 346 345 344 345 344 343 342 338 339 337 344
300 302 299 298 301 304 305 304 312 312 314 316 314 307 306 313 317 320 324 328 327 327 328 327 328 329 331 332 332 333 332 332 333 334 336 339 341 343 344 345 346 346 347 348 350 351 353 353 354 355 356 356 357 359 359 356 355 350 351 352 353 352 353 351 350 350 351 351 351 351 351 353 352 351 351 352 352 350 350 349 348 348 347 348 349 348 347 346 347 345 345 343 343 340 337 334 338
298 301 303 302 304 305 306 310 312 308 307 312 312 298 301 308 317 319 322 323 324 327 325 326 327 328 329 329 330 332 333 335 334 335 336 338 341 343 345 346 346 346 347 349 350 352 353 353 354 355 355 356 356 357 358 356 355 349 348 348 346 343 345 346 345 347 348 348 350 352 353 354 355 353 352 352 352 351 348 347 347 346 346 346 347 348 348 347 345 344 343 343 342 341 339 334 334
297 299 302 304 305 304 307 309 309 301 302 309 315 304 295 299 309 316 319 321 322 325 325 326 327 327 328 329 330 331 332 333 335 337 337 338 340 342 344 345 346 346 347 349 351 351 353 353 354 355 354 355 356 356 358 356 352 349 349 348 347 346 345 346 349 349 349 349 350 350 352 354 355 355 353 352 352 353 350 348 347 347 345 344 347 346 345 343 343 342 342 342 341 341 338 334 333
296 300 302 304 303 304 307 310 308 304 309 310 313 306 300 296 306 315 318 318 319 322 323 324 327 327 328 330 331 331 332 333 334 336 337 338 340 342 343 345 346 347 348 349 350 351 351 352 353 353 354 355 356 356 356 356 352 349 348 347 347 345 344 344 344 347 347 348 347 348 350 352 353 353 351 349 350 351 349 345 345 344 344 341 350 345 344 342 342 344 345 341 340 342 338 337 336
298 301 302 301 304 305 308 309 307 304 306 300 308 308 303 298 303 312 317 314 315 317 321 323 325 327 328 330 331 332 333 334 335 336 337 338 339 341 343 344 347 348 348 348 349 350 351 352 353 353 353 354 355 356 355 355 355 350 348 347 345 347 345 345 343 349 344 345 343 342 346 347 345 343 344 345 344 346 351 346 344 343 342 345 348 341 341 338 340 343 341 338 337 340 340 341 339
302 302 302 301 301 304 308 306 305 303 301 297 303 306 301 298 298 309 313 315 315 317 320 322 325 326 327 329 331 333 334 334 336 337 338 339 340 341 344 345 347 348 349 350 350 351 351 351 351 352 351 352 354 354 356 354 354 353 348 346 346 345 346 341 340 342 339 339 340 338 340 339 339 341 341 342 344 346 347 346 342 341 343 346 348 340 338 337 337 337 337 339 334 338 338 340 339
303 303 301 298 298 300 304 300 301 299 296 298 305 307 306 297 299 308 309 313 317 319 320 322 324 325 327 329 330 333 334 335 335 337 339 339 341 342 344 344 346 347 348 349 350 350 351 351 351 351 351 352 353 353 355 354 353 352 349 347 346 346 343 340 337 337 336 335 336 335 336 337 337 339 340 342 342 345 343 345 341 341 342 350 348 339 339 338 338 338 338 338 341 336 336 337 339
305 301 298 297 297 295 295 294 300 295 289 297 303 307 307 298 296 304 315 320 320 320 319 320 322 324 326 327 329 332 334 335 336 337 338 339 340 341 343 343 344 346 348 348 349 351 351 351 351 351 351 351 351 352 353 354 353 352 351 349 347 346 343 339 338 336 334 334 334 334 335 336 336 336 338 340 340 341 342 342 343 342 344 345 341 338 338 338 339 337 337 336 337 336 335 339 337
302 298 299 294 287 290 290 294 292 290 292 298 301 306 301 302 305 307 314 317 319 321 321 321 322 323 325 327 329 331 333 335 336 337 338 339 339 340 341 343 344 346 347 348 349 350 351 351 351 350 350 351 350 351 352 353 351 351 350 348 347 346 342 340 339 337 334 334 334 334 334 334 335 334 336 337 339 339 342 340 340 340 341 341 340 337 337 338 338 338 338 337 338 337 338 339 338
298 298 293 292 289 287 282 283 285 286 291 295 300 308 302 300 305 312 310 315 319 321 322 323 322 323 324 326 328 330 332 335 336 337 338 339 339 340 342 343 344 346 347 348 349 350 351 351 351 350 350 351 350 350 352 352 351 350 348 347 346 345 341 340 338 336 333 333 334 335 335 335 334 335 335 337 339 340 341 341 341 339 340 340 340 337 337 338 339 338 338 338 337 338 338 338 338
299 297 300 294 291 287 285 284 287 288 292 296 302 301 296 300 304 310 316 317 318 320 322 323 323 323 324 327 328 330 332 334 336 337 338 339 340 341 342 343 344 346 347 349 349 350 351 351 351 350 350 350 349 349 350 351 351 349 345 344 343 342 340 339 336 336 333 332 334 335 336 336 335 334 335 338 340 340 340 338 339 337 336 336 339 340 341 340 340 340 340 339 339 337 337 339 337
296 297 300 294 295 294 292 288 289 290 291 292 297 298 299 305 306 309 314 316 316 318 320 321 320 320 322 324 326 329 331 333 336 337 338 340 341 342 343 344 345 346 347 349 349 350 351 351 351 351 350 350 349 349 349 350 350 349 344 340 338 340 341 338 337 338 335 334 335 335 335 335 335 334 335 338 339 339 338 337 339 338 337 337 338 339 338 339 339 338 338 339 339 341 338 337 338
297 298 295 298 300 300 297 299 295 292 290 289 294 297 298 300 306 309 313 314 315 315 316 318 319 319 320 323 325 328 332 333 336 337 338 340 341 342 344 344 346 347 347 348 349 351 351 351 351 350 351 351 350 350 349 348 349 347 342 339 336 337 337 334 334 335 335 335 336 335 335 334 334 334 334 338 338 338 337 336 336 338 337 337 337 337 338 338 337 337 338 337 336 337 338 338 338
296 295 297 302 303 299 297 291 289 288 287 288 293 296 295 298 296 304 310 312 313 313 314 316 318 317 319 321 324 328 331 334 337 339 340 341 342 343 344 346 346 347 348 348 350 351 352 352 351 350 350 349 350 350 349 348 346 344 341 337 335 336 335 333 333 334 335 335 334 335 335 333 332 333 335 338 337 336 335 341 335 336 337 336 337 336 336 337 336 336 336 336 337 337 337 338 338
305 299 301 299 294 294 293 292 288 286 286 286 290 293 294 294 299 300 306 310 312 313 314 314 315 316 319 320 323 327 331 334 336 338 340 341 342 344 345 345 347 348 349 349 350 351 352 352 352 351 350 351 350 350 350 349 346 343 340 337 334 334 334 333 332 335 335 334 333 333 333 333 332 334 337 337 335 335 335 337 336 335 335 336 336 336 336 336 336 336 336 336 337 336 335 335 336
301 302 300 301 298 294 293 295 291 292 285 286 287 291 292 298 298 303 307 310 312 313 313 314 316 317 318 320 322 326 329 332 336 338 340 342 343 345 346 346 347 348 348 349 350 350 351 352 352 351 351 351 350 349 349 348 345 342 338 336 335 335 334 332 333 333 333 333 333 332 332 331 332 335 335 335 335 334 334 334 335 335 335 335 335 335 336 336 335 334 335 335 336 336 335 334 335
296 298 295 299 300 297 297 296 292 292 286 286 284 288 289 297 301 304 308 310 313 314 314 316 317 318 319 320 322 325 329 331 335 338 340 342 344 345 347 348 349 349 350 350 349 349 350 351 351 351 350 349 349 349 348 347 342 339 338 335 334 333 333 333 333 333 333 333 333 335 332 333 333 333 335 334 334 334 334 334 334 336 335 335 334 334 334 334 334 334 335 335 336 335 334 334 335
296 297 295 296 294 295 292 291 294 292 292 283 285 288 289 300 306 308 309 310 314 316 316 316 318 319 319 320 322 325 328 331 334 337 340 342 344 346 347 349 349 349 349 349 350 350 350 350 351 351 350 349 349 349 347 346 342 339 337 336 334 333 334 333 332 332 332 332 332 334 333 333 332 333 334 333 333 334 335 334 334 334 335 334 333 333 333 334 334 334 334 335 335 335 334 334 334
Wind_Speed
4 3 3 3 2 2 1 3 1 2 6 4 1 3 2 3 3 4 7 6 4 1 1 8 5 2 1 1 7 9 11 5 2 4 3 2 3 5 5 6 6 5 4 2 2 2 4 8 10 12 12 12 14 15 15 13 13 14 14 15 17 17 16 15 15 14 15 15 14 15 14 14 14 13 12 11 11 11 10 9 9 8 8 7 6 6 6 6 6 6 5 6 6 8 9 7 6
3 2 2 1 1 1 1 0 3 5 4 6 4 2 1 3 4 4 7 3 1 2 5 10 9 10 10 10 8 4 9 8 3 5 6 5 6 4 5 6 6 6 4 3 3 3 5 5 10 11 10 11 13 15 16 17 12 14 19 17 17 17 17 15 15 14 15 14 14 14 14 13 13 13 12 11 11 10 10 9 8 8 7 6 5 5 6 6 5 5 5 5 7 7 8 6 5
3 3 1 2 0 2 1 1 3 1 6 4 2 2 0 6 3 3 3 6 9 10 12 9 6 3 2 3 7 4 1 5 9 8 6 9 9 5 5 5 5 6 6 3 2 3 4 6 12 12 12 9 14 16 18 15 12 10 13 18 18 18 17 16 16 16 16 14 13 13 13 13 12 12 11 10 10 10 9 9 8 7 7 6 5 5 5 5 4 4 4 5 8 9 8 5 4
3 0 1 0 1 2 2 2 3 7 6 3 3 1 3 6 5 7 6 9 10 9 5 3 5 3 4 9 4 6 5 4 4 8 7 6 3 7 6 6 7 6 4 3 3 2 2 7 14 11 15 11 11 16 17 16 14 12 13 13 16 16 17 17 17 16 15 14 13 13 13 13 12 11 10 10 9 9 8 8 7 7 6 5 5 4 4 4 3 3 4 7 9 9 8 4 4
2 0 1 1 3 3 1 1 5 2 6 4 5 0 6 8 10 10 7 4 2 3 3 4 5 3 4 5 0 1 3 5 5 5 6 5 7 7 7 6 6 7 6 3 3 3 2 8 10 10 17 18 13 14 14 15 14 12 11 12 14 16 16 16 16 15 15 14 13 12 12 11 11 10 9 9 8 8 7 7 7 6 6 5 4 3 4 3 3 3 4 6 5 7 7 10 8
4 2 3 3 2 1 0 2 3 2 3 3 5 4 7 10 12 9 9 8 5 6 4 4 4 3 5 3 1 4 3 3 5 5 7 8 10 9 9 8 6 7 6 4 4 3 4 11 11 14 18 16 19 16 15 14 15 14 14 15 15 15 16 16 15 15 14 13 13 12 11 11 10 9 8 8 7 7 6 6 5 5 4 3 3 3 4 3 3 4 5 4 6 4 6 9 9
2 3 4 3 1 1 3 4 3 2 2 4 8 8 11 8 10 13 10 7 6 9 3 6 8 10 6 1 3 2 1 5 4 5 6 11 11 11 10 8 7 8 7 5 3 4 4 12 12 12 16 19 16 18 18 15 14 16 16 16 16 15 15 15 15 14 13 12 12 11 10 9 8 8 7 7 6 5 4 4 3 3 3 3 3 3 3 3 3 4 4 4 3 4 4 5 5
1 2 0 2 1 2 4 3 1 1 1 2 8 12 9 10 10 8 7 6 4 4 4 6 1 6 3 3 5 1 5 4 9 11 12 9 8 11 9 8 8 7 7 5 3 3 5 13 12 13 13 13 14 16 15 16 14 16 16 17 16 16 15 14 13 13 13 12 11 10 9 8 7 7 7 6 6 5 4 3 3 3 2 2 2 2 2 2 3 3 3 4 3 4 3 4 6
4 4 0 2 1 1 2 2 1 1 4 5 4 7 9 10 8 9 7 3 7 6 5 6 4 10 3 4 3 2 4 9 11 12 12 12 9 10 7 8 8 7 7 6 4 3 3 8 8 9 12 10 13 14 19 23 20 19 20 17 16 15 14 14 13 12 12 11 11 10 9 8 8 7 7 6 5 4 4 3 3 2 1 0 1 1 2 3 3 3 4 3 3 3 4 3 2
2 4 1 0 1 5 3 1 4 1 4 3 11 10 10 6 5 8 13 8 7 8 3 1 3 7 7 7 5 1 3 10 12 11 10 11 10 10 8 8 8 9 7 6 5 4 2 8 5 5 13 14 15 17 16 16 16 15 14 13 13 14 14 14 13 12 12 12 11 10 9 9 8 7 6 6 5 5 4 4 3 2 1 0 1 2 3 4 4 4 4 5 5 5 5 5 5
1 2 1 1 4 3 4 1 3 3 3 4 5 6 5 6 9 7 7 11 4 5 6 12 8 10 7 3 1 1 8 11 12 13 11 11 11 9 7 7 8 8 8 7 5 4 3 5 11 10 11 14 11 12 13 13 12 13 13 13 13 13 13 14 13 12 12 11 11 10 9 8 7 6 6 6 6 5 5 4 3 2 2 2 2 2 3 5 5 5 6 7 7 7 7 7 5
1 1 1 1 2 6 3 6 4 3 3 4 3 3 4 9 9 9 10 12 5 6 5 4 7 6 7 3 2 5 8 10 11 11 12 12 9 10 9 6 6 5 8 6 5 4 3 4 8 9 7 10 12 11 11 11 12 11 12 13 13 12 12 12 12 11 11 10 9 8 8 7 7 7 7 6 5 5 4 4 4 3 3 4 4 4 5 6 7 7 7 7 8 8 8 9 10
1 1 2 1 1 2 3 6 3 5 4 3 7 3 5 7 9 11 6 11 7 9 3 1 13 2 5 2 3 6 9 9 9 11 11 10 10 9 8 7 7 6 6 7 4 4 4 0 1 4 5 11 12 12 11 12 11 11 12 12 11 12 12 12 11 11 10 10 8 8 9 8 7 7 6 5 4 4 4 3 3 4 4 5 6 6 6 8 10 9 9 12 13 10 11 9 8
2 3 2 0 1 3 6 3 4 6 3 3 1 5 3 3 5 12 12 9 7 4 3 11 6 5 6 6 5 6 7 10 11 10 8 9 7 8 9 8 8 7 6 5 4 3 2 1 1 1 4 4 4 9 10 11 10 11 11 11 11 10 11 10 9 9 8 9 9 8 7 7 7 6 5 4 3 4 4 4 4 5 6 6 7 8 7 7 11 10 15 12 11 11 10 8 6
3 1 2 2 1 2 1 8 10 7 5 4 3 7 3 2 8 7 13 14 2 3 8 3 4 6 6 10 7 10 10 13 12 11 10 9 8 7 8 5 7 6 5 4 3 4 3 1 0 2 3 2 2 3 5 9 11 11 11 11 10 9 9 8 8 7 7 7 7 7 7 6 5 5 4 4 4 5 5 5 6 7 8 8 9 8 8 6 8 8 8 8 10 12 11 11 9
5 3 2 1 3 4 3 4 2 5 3 5 6 6 8 5 3 5 1 4 5 4 7 4 1 1 4 6 3 12 14 13 12 12 11 10 8 5 6 6 5 6 5 5 5 3 3 3 2 1 2 1 1 1 4 4 8 11 10 9 9 8 8 7 7 7 6 6 7 6 6 4 4 4 6 4 5 6 7 7 7 8 8 8 8 8 7 9 10 11 5 7 10 12 12 11 10
2 1 1 1 3 4 4 6 7 7 3 6 5 7 5 5 2 3 6 11 14 7 1 2 2 1 11 3 11 13 14 12 11 12 12 9 8 7 6 5 6 4 4 5 5 6 5 5 5 4 3 3 1 2 1 4 3 9 8 10 9 8 7 7 6 6 6 6 5 5 5 2 1 1 2 2 6 3 3 6 8 9 10 10 10 9 9 9 10 8 8 7 9 11 10 9 11
2 2 2 1 3 5 5 9 9 4 11 9 10 7 13 8 3 5 10 7 9 4 4 3 4 4 7 8 15 14 14 14 12 13 12 11 8 9 8 7 7 7 6 5 5 6 6 6 6 4 4 5 2 2 1 3 3 5 3 3 4 5 7 6 4 2 4 2 6 4 3 2 1 2 3 4 3 4 5 7 8 9 10 10 9 9 8 8 8 7 4 9 8 8 9 4 5
4 1 3 7 3 4 4 5 5 10 8 11 10 7 13 8 12 5 8 6 7 4 3 5 6 8 10 13 15 15 16 14 13 13 15 14 11 12 10 8 9 7 7 6 6 6 6 5 5 6 6 5 5 5 2 2 2 1 3 4 4 4 4 5 3 2 2 2 2 3 3 3 2 2 2 4 4 6 5 7 9 10 10 9 8 8 6 6 6 6 7 1 10 10 5 4 2
4 6 3 4 6 3 2 8 8 7 12 10 10 6 7 7 7 4 8 11 8 9 9 4 9 9 13 14 15 16 15 15 14 14 15 13 12 12 11 11 9 9 8 6 7 6 6 5 6 7 9 6 5 3 4 3 3 2 3 3 4 4 4 4 3 2 2 2 2 3 3 3 3 2 3 6 7 4 4 5 7 8 7 6 6 3 4 5 6 5 5 4 2 1 0 2 1
2 3 4 5 4 2 1 5 7 6 14 12 11 7 7 6 6 7 12 10 6 5 11 19 13 15 15 17 16 15 15 14 14 13 13 11 10 8 8 9 9 7 6 6 6 6 7 6 6 5 5 4 4 4 3 4 3 3 2 3 3 3 3 3 3 3 3 2 1 2 2 3 3 3 3 4 4 4 4 4 3 3 3 4 4 3 3 3 3 4 3 3 1 2 2 2 2
4 8 6 5 3 3 4 5 8 10 8 12 11 13 9 5 5 10 16 12 9 13 14 7 17 17 17 19 17 15 15 14 14 13 13 14 13 11 8 6 5 5 6 7 7 7 7 7 6 4 5 4 4 4 4 4 4 4 4 3 3 2 2 3 3 3 3 3 3 2 2 3 3 4 4 5 5 4 4 4 4 3 3 3 2 3 3 3 4 3 3 2 1 1 1 2 2
3 3 2 4 6 5 4 7 8 12 9 11 13 8 9 10 6 11 14 7 2 4 10 11 15 18 15 14 16 16 17 17 15 14 13 13 12 11 11 9 9 9 7 7 6 5 7 7 6 6 6 5 5 5 4 4 4 4 4 4 4 3 3 3 3 3 3 4 4 3 3 4 4 4 5 5 5 4 5 4 4 3 3 2 1 2 3 3 2 3 3 3 3 2 3 2 3
3 6 3 7 5 6 8 10 11 11 16 15 9 10 13 9 9 8 8 1 1 9 11 11 11 14 15 15 15 15 15 16 16 16 15 15 14 14 12 12 9 7 7 8 7 7 7 9 7 6 7 7 6 6 6 5 4 5 5 5 5 5 5 5 4 4 3 4 4 4 5 4 4 4 5 5 6 3 5 4 3 3 2 2 1 1 2 3 2 2 3 4 4 3 3 3 2
4 5 5 3 4 4 8 11 11 9 7 7 10 13 11 8 6 8 5 2 7 9 13 13 13 14 14 14 15 14 13 13 13 12 10 9 10 10 8 7 8 8 10 10 8 8 9 9 9 9 7 8 7 7 8 6 5 5 5 5 5 6 5 5 5 4 4 4 4 5 6 5 4 5 6 6 4 5 5 4 3 3 2 2 1 1 1 3 3 3 2 2 2 3 3 3 3
4 6 2 4 4 6 9 9 10 11 6 9 11 5 3 5 9 5 2 3 7 11 12 13 14 15 15 16 15 14 14 14 13 13 13 10 10 11 10 10 11 11 11 9 8 8 7 8 10 10 9 8 7 7 6 6 6 6 6 6 5 6 5 6 6 5 5 5 5 5 6 6 5 6 6 5 5 6 4 3 3 3 3 1 0 2 1 1 3 3 3 2 2 2 3 3 4
3 4 6 6 5 9 6 13 6 7 6 12 12 6 5 6 8 3 2 7 11 12 12 12 14 16 14 14 13 13 14 14 15 12 9 8 9 12 11 10 10 10 9 9 8 8 8 9 9 10 9 10 6 7 7 7 7 7 7 6 6 6 6 5 6 6 5 6 6 7 6 7 6 5 5 6 4 5 5 4 4 2 3 2 1 1 0 1 1 2 2 1 2 3 3 2 3
4 7 8 7 6 5 4 5 6 7 2 3 13 6 4 0 0 5 7 7 14 15 13 13 12 13 12 13 12 10 11 11 10 10 13 12 10 10 10 10 10 9 10 10 9 8 8 10 10 10 10 9 8 8 8 7 7 7 7 6 7 7 7 6 6 6 7 6 6 7 6 6 6 6 6 5 5 5 5 4 4 3 4 2 1 1 1 1 1 1 1 1 2 3 2 2 2
7 13 7 3 8 7 3 8 4 4 2 6 13 9 1 3 4 3 9 9 12 14 14 13 12 11 11 11 10 10 11 10 10 10 12 10 8 8 10 10 10 10 8 10 9 9 10 10 9 10 9 9 9 9 8 7 6 7 7 7 6 6 6 6 6 6 6 7 6 7 7 7 6 7 6 6 5 5 5 4 4 4 3 1 0 2 2 1 0 1 2 2 3 3 4 4 3
3 3 9 5 4 3 4 1 3 6 3 10 9 3 8 6 2 7 9 12 12 11 12 12 10 10 10 10 10 9 10 10 11 11 9 9 9 9 10 9 10 9 8 7 8 10 9 7 7 7 9 10 10 8 7 6 7 6 6 6 6 6 6 6 7 6 7 6 6 6 6 7 6 6 6 6 5 5 4 4 4 3 1 1 1 1 1 1 0 1 3 3 3 3 4 4 4
4 3 4 5 9 5 3 3 4 7 6 9 2 5 6 5 2 7 10 14 17 15 13 12 11 10 10 10 10 11 11 10 11 10 9 9 9 8 10 9 10 9 7 8 11 12 10 8 7 6 8 9 8 8 8 7 6 6 6 6 6 7 6 6 6 7 6 6 4 5 6 6 7 7 7 6 5 5 4 4 4 1 2 2 2 1 2 1 2 2 2 4 3 3 3 3 4
3 7 2 1 5 3 3 1 8 10 4 2 3 2 7 5 7 9 10 11 13 15 14 13 12 11 11 10 10 11 10 9 9 10 10 10 9 9 10 10 10 10 10 10 10 9 10 9 8 8 8 9 9 9 8 7 6 6 5 6 6 6 6 6 6 7 6 4 4 6 7 6 6 7 6 6 5 4 4 4 2 2 3 2 2 2 2 3 2 2 2 2 4 5 4 4 2
4 5 4 7 2 4 1 4 5 4 9 2 3 4 0 2 7 10 9 12 12 12 12 12 13 12 11 10 10 9 8 9 9 10 10 10 9 9 9 10 10 12 10 10 10 10 10 9 9 9 10 10 10 9 7 5 5 5 5 5 6 5 6 6 6 5 4 3 5 5 5 4 3 5 6 5 5 2 1 3 1 2 2 3 3 2 1 1 1 2 2 1 1 4 4 6 4
3 1 5 2 7 5 4 1 5 4 11 8 3 3 4 1 10 10 9 11 10 10 11 11 11 11 11 10 10 10 10 10 12 11 12 10 9 10 9 10 11 11 10 11 11 11 12 10 9 10 9 9 8 8 7 6 7 5 4 4 6 5 6 5 4 3 2 3 4 6 5 3 4 5 4 3 4 2 2 5 2 2 2 2 2 1 1 1 1 1 3 1 1 2 4 5 6
7 2 3 1 1 4 2 8 8 8 6 8 3 4 3 4 11 12 13 12 12 12 12 12 11 10 10 11 11 12 11 12 13 12 11 11 11 10 10 10 10 10 9 11 10 10 9 8 8 9 9 8 8 7 6 5 2 2 2 1 3 4 4 4 2 1 5 4 4 1 3 4 4 4 3 4 4 3 3 2 2 3 2 2 2 2 2 2 2 2 3 3 3 4 4 5 6
10 10 6 6 9 9 8 3 2 10 6 8 6 7 5 6 10 10 12 14 14 12 10 10 10 11 11 11 11 11 12 14 12 11 11 10 10 10 9 9 9 9 9 9 10 9 10 9 8 7 7 8 6 6 5 5 4 5 5 2 2 4 4 4 4 5 4 4 5 8 7 4 4 5 6 6 5 3 3 3 3 2 2 2 3 2 2 3 3 3 2 3 4 5 3 4 5
6 3 4 4 2 2 4 1 3 6 2 6 3 2 3 8 14 14 13 11 10 10 11 11 11 11 11 10 11 12 12 15 12 11 11 11 11 10 9 9 9 9 9 10 10 10 11 11 9 9 8 7 7 6 6 6 5 4 2 4 5 5 5 4 4 5 4 5 6 6 5 5 6 6 5 4 4 3 2 2 2 2 3 3 3 3 3 4 4 3 3 3 3 4 4 2 4
10 6 5 4 4 4 0 1 2 1 5 2 2 1 2 4 8 11 9 11 15 16 14 14 14 12 11 11 12 12 14 8 4 5 7 8 9 10 9 8 9 10 10 10 12 12 11 10 10 10 7 7 8 8 7 6 6 6 6 6 5 5 4 5 7 6 6 3 5 6 7 7 6 5 4 4 4 4 3 3 3 3 3 3 3 3 4 5 5 4 3 3 3 2 3 2 1
5 8 5 2 5 3 2 2 1 1 4 4 1 3 3 4 7 9 13 18 17 16 16 14 13 12 11 11 12 12 9 8 7 10 10 9 11 11 10 9 9 12 12 12 12 11 11 10 10 9 8 8 8 8 7 7 5 5 6 5 6 4 3 4 4 3 1 2 2 2 3 4 5 4 3 4 4 4 4 3 3 4 5 4 3 4 4 4 4 5 4 3 3 1 3 5 4
7 4 5 8 3 6 5 4 6 2 3 2 3 4 2 1 3 9 12 13 8 7 9 9 11 14 14 14 13 12 12 11 11 11 12 11 11 11 10 10 11 10 9 10 10 12 10 10 9 9 9 9 8 8 8 8 7 5 3 3 3 3 3 2 1 1 1 1 2 2 3 4 5 5 5 5 5 5 5 5 5 5 4 4 4 5 5 5 5 4 4 5 4 4 2 2 1
2 7 4 4 2 7 9 5 4 4 2 4 5 3 3 3 7 8 10 9 7 8 8 8 9 11 13 13 13 13 15 14 13 11 11 11 11 12 13 13 11 11 11 11 11 11 9 12 11 11 10 10 8 8 9 7 5 5 4 5 4 4 4 3 1 2 3 4 3 5 5 5 4 5 5 6 5 5 5 5 5 5 5 5 5 5 5 6 6 5 4 4 4 4 3 2 2
4 5 8 8 8 7 2 7 10 4 2 4 7 1 5 5 11 13 9 8 12 8 10 13 13 12 10 11 14 14 13 12 14 15 14 13 13 12 11 11 12 12 12 12 12 12 11 10 10 10 9 8 8 9 9 7 7 8 6 6 5 3 3 3 5 6 6 6 6 4 5 6 5 5 5 6 6 5 5 5 5 5 5 5 6 6 5 5 5 4 4 4 5 4 3 1 2
7 7 8 8 9 7 9 8 7 3 7 8 7 10 6 3 8 11 10 11 13 7 11 14 13 13 13 13 14 13 14 13 12 12 13 13 13 12 12 13 13 13 13 11 10 10 11 11 10 11 10 8 8 8 8 8 7 7 9 9 8 8 7 6 5 6 6 6 4 5 5 5 5 6 5 5 5 5 4 5 5 5 4 3 3 3 3 4 4 4 3 4 4 4 4 2 3
4 3 12 9 7 9 11 12 11 6 2 3 6 4 4 3 8 5 8 11 11 13 14 13 15 15 16 15 15 14 15 15 14 15 14 15 16 16 16 16 14 15 13 10 10 10 11 11 11 11 9 8 8 8 8 8 9 8 8 7 7 7 8 8 7 7 5 5 4 5 4 6 5 5 5 5 4 4 4 4 4 4 3 0 1 2 2 1 0 0 2 2 2 3 4 3 2
6 3 10 10 11 9 10 11 9 3 8 1 1 0 1 4 7 1 13 11 12 16 18 18 17 17 17 17 17 17 17 17 16 15 16 16 17 17 16 14 14 12 10 10 11 11 11 11 11 10 10 9 8 9 9 9 9 9 9 8 7 6 7 6 5 5 6 5 5 4 5 5 5 4 4 5 5 5 4 4 4 3 2 3 2 3 2 2 3 3 2 2 2 2 3 3 1
5 7 5 6 5 2 10 8 7 2 3 5 5 6 5 7 3 1 3 10 14 19 22 22 20 19 17 17 18 18 16 15 15 17 17 16 16 16 15 13 11 12 11 11 11 10 10 10 11 10 11 9 9 10 10 10 10 9 9 8 9 8 6 4 5 6 6 6 7 6 5 5 5 4 4 3 4 4 4 4 4 4 4 4 3 3 3 3 3 3 3 2 2 1 2 3 3
4 9 5 4 8 4 2 3 3 4 1 6 9 10 10 8 6 9 11 12 20 19 13 14 14 15 17 17 19 18 16 15 14 16 16 17 16 14 11 12 13 11 10 11 10 10 10 10 11 12 12 9 10 11 11 11 10 10 10 10 10 10 8 7 6 5 5 5 6 6 6 6 5 5 4 3 4 4 4 4 4 4 4 3 3 4 4 4 3 3 3 2 2 3 2 2 2
9 2 4 2 2 4 5 3 2 4 3 8 6 10 8 10 6 6 14 14 16 19 18 19 18 21 20 18 18 18 17 15 15 15 15 16 13 11 11 13 13 13 12 11 11 11 11 11 11 13 11 11 10 11 11 11 11 11 10 11 11 10 10 8 9 9 8 9 8 7 6 5 5 3 3 4 4 4 4 4 4 4 4 4 4 4 3 4 3 2 3 3 3 3 1 2 2
5 5 5 7 3 1 1 1 1 4 7 7 3 7 3 13 12 8 14 15 13 14 16 17 18 20 20 20 19 16 16 16 16 16 15 14 14 14 14 14 13 13 14 14 14 12 11 11 13 14 13 12 12 11 12 12 11 11 11 11 11 10 10 10 10 10 9 9 8 7 6 6 4 4 4 6 6 6 5 5 4 4 4 4 5 4 5 4 4 4 4 4 4 4 4 3 3
7 8 6 5 3 3 3 2 0 2 5 3 4 9 8 2 9 11 12 15 18 16 16 16 13 17 18 19 17 15 15 17 16 16 17 16 16 15 16 15 14 13 14 14 14 13 12 11 13 14 15 12 12 11 12 12 13 12 11 11 11 9 10 10 9 10 9 8 8 9 8 8 7 8 7 7 7 7 6 6 6 6 6 6 5 6 6 5 5 5 5 5 5 5 4 5 5
8 3 11 8 7 4 3 3 3 4 7 3 2 8 6 6 9 8 20 22 19 12 10 12 9 3 10 12 10 13 14 15 16 16 17 17 17 17 16 16 15 14 15 15 13 14 13 13 14 15 15 13 13 14 11 13 12 11 11 11 10 9 10 9 9 9 10 9 8 8 8 7 8 8 8 7 7 7 7 6 6 6 6 6 5 5 5 5 5 4 4 5 4 4 5 4 5
3 4 6 5 10 6 5 7 6 3 2 1 1 5 6 9 3 8 3 4 6 7 12 11 12 5 6 9 13 14 15 15 15 16 16 17 17 17 16 15 14 14 15 14 15 14 14 15 15 16 17 14 12 13 13 13 11 10 10 11 10 11 9 8 8 7 7 9 9 9 9 8 8 8 7 6 7 7 7 7 6 7 6 6 6 5 5 4 4 4 4 3 5 2 4 5 5
4 4 7 8 8 9 0 1 1 3 3 5 3 2 6 7 8 7 3 4 8 4 9 10 14 8 8 10 12 13 14 15 15 15 16 17 16 16 16 16 15 14 13 15 16 16 17 17 15 16 16 13 13 14 13 11 10 10 11 11 10 9 9 10 9 9 9 7 8 8 8 9 8 6 7 6 7 7 7 7 7 7 6 6 5 5 5 5 4 4 4 4 5 4 3 5 4
5 3 8 3 3 3 5 5 1 0 5 5 2 7 2 2 7 4 4 5 10 6 11 12 12 5 10 13 13 15 16 17 17 17 17 18 18 19 17 16 17 17 18 17 18 17 16 16 16 16 15 16 16 14 13 12 11 10 9 9 8 9 10 9 9 10 8 8 7 7 6 6 7 7 7 6 6 7 6 6 6 6 6 5 6 5 5 5 4 4 4 4 5 3 3 3 4
12 7 7 7 3 5 2 2 2 1 2 2 2 2 3 6 7 3 5 9 14 13 8 5 6 10 15 15 14 14 14 12 13 15 14 14 15 16 17 18 18 18 18 18 18 17 14 13 15 15 17 17 15 11 9 8 9 8 8 10 11 10 9 9 9 9 9 10 10 9 9 9 7 6 6 6 6 6 6 6 6 5 4 5 5 5 5 4 4 4 4 4 4 3 3 4 5
3 7 3 1 5 4 4 7 5 5 5 1 4 1 6 7 7 10 11 12 14 12 6 10 14 15 15 13 12 13 13 14 15 15 16 17 18 18 18 18 18 18 17 17 17 15 17 17 16 15 15 12 9 11 12 12 10 9 9 10 11 12 13 12 12 12 10 11 10 10 8 7 8 7 6 6 6 6 6 6 5 5 5 5 5 5 4 5 3 4 4 4 5 3 3 4 6
4 5 3 1 1 2 4 1 4 6 6 5 5 3 5 8 9 10 13 11 13 12 13 13 13 13 14 12 11 12 13 14 15 16 17 17 17 17 17 18 18 18 17 16 15 17 18 16 16 16 16 15 14 14 12 11 9 11 12 14 12 10 11 9 9 10 11 10 9 9 8 8 6 7 6 6 6 6 6 6 6 5 5 5 5 6 5 4 4 4 4 5 5 4 4 5 5
8 10 8 8 5 3 6 9 1 1 3 4 4 8 5 8 4 12 13 12 11 12 13 13 12 13 10 9 11 13 13 14 16 17 16 15 15 16 16 15 14 13 14 15 15 15 16 16 16 16 15 14 15 13 13 13 11 10 13 13 13 12 11 10 11 10 10 10 10 10 9 7 8 8 8 8 7 6 6 6 5 5 5 5 6 6 5 4 4 5 5 3 4 4 5 6 5
Wind_Direction
140 121 134 151 144 144 93 342 49 317 57 74 67 30 73 83 98 88 102 120 103 342 42 77 69 86 131 114 102 99 35 51 256 127 171 128 121 133 127 112 120 117 124 142 186 155 119 139 145 154 157 146 145 145 158 158 148 139 148 154 154 151 151 152 149 152 155 153 155 151 150 148 148 146 145 142 139 136 136 137 134 132 133 139 143 139 120 103 100 95 96 99 103 97 100 97 105
130 135 130 171 124 116 18 3 98 24 47 79 55 57 40 76 57 121 135 128 154 98 91 87 86 86 85 107 135 160 37 38 79 99 81 109 120 109 126 124 128 121 129 169 199 144 141 148 148 162 151 155 153 153 158 157 149 148 157 158 155 154 152 150 149 152 152 152 154 152 149 151 149 147 147 144 141 140 140 139 138 137 140 143 142 131 114 109 106 107 107 101 92 82 81 97 104
122 130 78 357 13 89 137 50 82 84 82 65 22 106 51 64 83 56 90 108 117 122 104 110 113 85 47 47 39 29 115 40 82 82 98 131 124 152 140 138 132 131 144 192 205 154 144 148 155 163 149 155 165 157 156 154 157 147 155 156 155 155 152 151 154 155 153 153 154 153 152 153 150 149 147 145 144 143 142 141 142 142 141 143 139 124 119 114 104 100 98 91 81 78 72 62 94
126 68 132 105 3 30 34 18 87 117 106 163 74 337 106 124 87 96 91 115 125 124 110 68 51 309 91 64 91 68 77 91 52 108 121 155 132 150 148 147 140 126 120 187 186 130 112 168 167 173 131 157 178 157 156 156 150 155 148 140 151 149 150 152 153 151 152 153 155 153 154 155 152 150 147 144 142 144 143 143 145 146 147 146 138 129 118 102 96 88 73 69 70 74 89 101 71
103 340 101 95 97 18 92 110 136 89 125 171 153 224 123 122 121 114 117 116 79 66 79 115 86 9 83 103 235 66 104 87 85 80 105 98 122 143 147 143 135 130 145 164 150 165 169 185 194 183 144 169 173 156 156 148 147 151 140 141 150 151 151 152 151 152 154 156 155 153 155 153 152 147 143 143 144 145 147 149 151 152 151 145 128 108 88 86 91 77 64 67 79 98 107 75 34
58 51 7 71 68 185 50 60 65 92 205 154 124 177 136 141 133 122 105 75 66 61 88 82 129 146 51 15 52 92 165 119 140 92 119 135 136 144 145 156 147 136 143 156 163 160 209 195 196 172 164 149 160 161 153 149 153 154 152 153 155 156 154 154 154 155 156 156 154 153 153 154 152 147 143 143 146 148 150 152 152 149 139 115 96 82 64 50 45 48 56 57 89 80 84 110 112
110 61 349 29 31 67 137 120 141 142 0 153 141 149 147 145 132 120 111 85 50 65 18 97 117 104 76 78 55 57 108 126 128 121 111 137 134 146 154 153 138 139 146 154 146 175 247 197 200 172 154 158 158 148 146 149 163 162 159 160 159 157 156 155 154 156 155 153 150 151 154 152 150 147 145 143 144 147 151 142 134 115 88 80 73 59 49 30 26 27 31 50 27 81 78 75 97
63 101 12 98 253 56 57 118 110 132 83 111 146 139 147 139 136 123 121 113 161 107 108 128 316 91 60 48 107 37 54 63 94 102 112 122 131 147 152 149 143 142 140 138 135 163 229 182 182 169 157 144 145 141 144 149 170 161 163 161 161 157 154 152 154 155 153 150 150 152 154 150 149 149 149 148 147 148 141 126 101 82 83 75 58 43 10 0 10 6 8 9 358 358 61 63 58
19 78 144 79 53 40 62 26 69 342 105 112 99 119 133 137 136 126 104 104 95 99 118 126 167 97 225 82 68 131 73 100 99 112 119 131 142 152 154 149 142 141 143 144 146 161 265 178 181 170 144 147 145 143 160 158 168 162 160 162 155 152 153 152 154 155 151 150 151 153 154 154 156 155 152 149 148 143 135 123 117 131 115 119 21 345 330 336 342 350 345 340 336 335 353 46 45
37 61 311 137 128 74 71 347 79 246 124 148 137 144 142 143 123 125 123 113 125 114 103 65 90 113 130 101 116 99 127 115 115 116 124 138 147 149 145 149 145 149 146 145 150 170 219 168 161 187 142 165 157 156 155 148 148 152 147 145 147 152 154 151 154 154 151 151 151 153 156 156 155 154 153 149 146 152 149 154 166 175 191 241 316 318 331 325 321 328 320 311 317 327 331 359 351
31 9 176 70 43 92 122 156 89 71 110 111 106 133 136 121 121 104 113 115 103 115 116 103 80 122 114 93 56 94 131 126 129 135 138 143 147 149 143 150 154 151 143 150 156 142 151 139 163 189 174 156 145 142 147 145 144 149 149 147 148 153 152 152 153 151 150 152 154 154 151 148 151 155 155 157 160 166 173 178 185 201 213 247 274 288 302 301 302 308 313 314 315 324 337 331 344
84 284 48 79 138 147 206 130 123 115 104 127 135 149 160 132 117 111 127 116 121 118 139 143 149 137 89 106 133 134 136 138 141 141 145 148 147 150 151 149 151 152 144 145 145 142 144 170 176 175 174 156 145 145 145 148 151 152 148 147 154 151 155 154 152 150 153 147 147 147 144 151 159 161 162 168 175 182 190 201 206 220 242 260 273 280 290 304 307 309 313 310 321 325 326 323 334
130 130 90 83 198 96 164 112 153 132 139 196 154 168 135 137 133 131 114 113 126 122 150 264 142 173 105 134 126 140 144 150 146 147 146 151 155 150 148 151 158 155 140 142 149 151 152 61 154 180 166 163 153 151 155 155 157 157 153 156 159 159 156 154 154 151 148 144 147 154 158 163 168 168 172 175 187 214 228 240 251 269 280 281 288 304 310 321 314 304 316 343 337 328 322 335 10
139 195 120 158 38 129 126 133 142 133 210 177 136 135 154 111 150 136 123 110 140 138 165 135 123 109 83 108 143 163 162 152 150 149 139 138 138 151 151 156 160 156 144 146 152 143 133 79 27 352 141 159 146 153 157 154 162 164 165 164 161 159 156 154 150 150 150 150 159 161 166 170 172 177 180 186 212 239 262 274 288 287 287 295 294 301 315 323 317 336 20 348 310 328 335 344 331
188 134 79 121 129 79 213 136 178 162 204 167 169 151 122 24 130 144 141 135 140 126 120 84 152 108 193 165 171 181 163 157 152 143 139 137 139 148 151 147 156 150 142 151 143 137 136 109 4 37 59 21 357 137 147 164 167 167 168 165 162 160 162 156 154 153 158 161 164 173 174 173 182 185 191 211 231 249 261 267 268 273 278 284 290 298 308 309 300 349 32 287 323 326 332 336 329
174 89 83 102 180 140 219 118 104 135 206 158 161 120 85 76 98 113 53 103 123 136 145 149 232 186 147 191 166 159 152 152 150 142 142 147 147 134 142 158 161 159 148 152 142 144 158 159 141 88 68 327 283 5 143 151 172 172 166 165 165 164 164 165 166 168 172 174 179 180 180 180 193 200 212 223 239 246 256 258 252 263 273 286 296 302 301 309 319 27 315 349 321 317 323 331 330
63 80 326 23 185 160 213 151 149 197 187 150 154 151 126 144 168 53 104 113 124 159 139 111 162 51 152 154 136 142 146 144 140 136 144 152 154 156 158 168 171 149 166 169 156 156 178 176 161 160 170 204 198 13 83 118 150 171 170 169 170 167 170 171 176 174 177 185 178 186 182 127 349 309 284 280 246 265 255 253 255 264 272 283 292 298 306 316 330 44 325 338 319 312 311 324 333
130 168 142 260 206 179 200 174 184 161 142 166 164 173 129 149 116 127 95 79 115 109 85 70 33 60 110 128 128 138 143 144 143 144 156 158 165 162 169 183 184 180 180 173 168 169 176 180 164 169 184 193 174 133 173 129 132 163 134 149 166 168 173 173 181 184 192 152 198 178 116 128 111 274 277 276 263 238 244 255 261 266 272 281 288 300 313 328 344 58 352 322 320 305 329 357 2
149 126 102 216 184 236 163 181 169 138 175 165 157 154 147 159 134 168 110 137 133 91 80 101 82 96 109 124 131 140 148 150 153 157 165 168 171 171 174 181 189 182 184 189 177 180 185 175 169 168 188 189 162 177 116 109 133 86 139 149 159 164 168 163 166 163 100 141 132 133 149 136 166 220 247 261 251 256 253 257 265 271 276 276 284 300 324 352 359 26 102 329 311 338 15 6 337
224 127 227 241 205 228 207 169 186 168 139 146 144 157 135 154 134 164 135 151 154 156 140 121 140 141 141 139 140 148 154 155 161 167 170 172 175 174 173 180 185 189 189 186 182 183 174 182 180 178 178 184 161 158 118 97 117 123 145 134 155 143 141 132 127 94 143 132 151 169 165 197 208 217 269 277 278 293 303 293 293 300 312 317 319 15 355 348 348 11 29 46 54 8 202 222 293
237 126 204 219 195 166 231 174 168 154 153 151 143 135 124 179 143 144 139 122 189 202 190 164 170 158 155 150 148 154 158 161 164 168 170 172 175 178 178 181 185 180 182 179 188 190 174 188 178 185 173 164 161 148 147 138 130 146 145 136 124 119 141 143 141 138 141 150 239 215 220 233 249 265 282 288 289 293 296 282 295 303 310 323 342 359 360 339 3 7 30 53 42 20 344 342 342
118 203 201 162 162 154 197 173 152 148 148 138 141 148 168 140 130 151 156 152 187 198 198 193 154 155 160 157 156 155 160 165 167 172 176 176 178 178 174 171 170 169 176 183 196 192 185 180 183 172 175 167 175 164 159 178 161 160 163 159 127 84 118 151 165 185 178 178 182 231 233 260 272 280 285 282 281 286 284 280 281 293 311 309 356 332 334 346 345 3 5 2 59 3 336 343 332
223 298 255 193 182 156 186 146 144 136 146 150 159 165 124 158 162 179 169 167 255 174 163 162 166 158 158 150 153 161 165 168 173 178 179 181 180 180 179 178 178 180 183 190 182 194 188 182 186 176 185 181 178 175 165 174 178 173 167 168 161 175 163 171 204 208 196 190 187 188 210 231 248 261 272 271 271 273 273 277 285 298 291 302 350 355 323 341 352 345 349 344 358 1 342 338 342
208 245 189 206 199 167 168 153 151 154 157 173 153 135 150 146 161 191 187 274 159 135 141 148 151 145 152 157 167 166 169 172 178 179 181 185 183 183 181 179 179 172 181 189 186 187 190 189 187 182 192 191 186 182 176 182 179 174 189 199 188 189 187 203 201 202 204 200 196 195 209 205 213 243 250 257 257 259 259 270 284 286 289 298 1 355 313 330 342 353 344 341 353 345 327 326 337
212 255 213 206 157 170 160 148 153 163 154 120 133 150 171 168 159 147 205 38 117 125 131 140 148 151 160 162 167 168 169 175 180 183 183 186 185 182 177 174 175 177 190 193 189 186 191 188 185 192 195 197 193 188 194 190 186 186 192 193 195 203 192 206 199 188 202 214 214 206 210 210 211 223 243 247 249 251 259 260 257 260 263 277 8 316 317 312 330 350 350 343 332 323 326 331 332
229 236 156 148 148 151 146 140 153 152 139 138 124 133 95 114 108 142 237 145 123 124 131 143 151 157 166 171 170 168 174 180 179 183 189 183 181 180 184 181 182 188 194 191 188 195 187 187 188 194 197 194 192 192 194 190 192 192 198 204 196 205 199 203 200 204 206 203 219 214 215 215 211 217 231 243 236 258 255 263 265 261 267 272 240 290 344 306 305 329 328 333 326 327 334 329 334
184 163 165 144 133 130 163 144 157 152 140 155 138 126 129 149 135 229 223 153 131 129 139 152 157 165 170 172 173 174 176 182 185 183 182 186 188 188 189 186 187 192 184 191 192 193 189 189 195 194 196 201 184 198 198 198 194 200 200 204 201 202 196 195 200 203 200 203 213 214 214 217 216 223 224 241 236 252 264 262 251 247 260 229 183 271 43 290 301 265 282 310 331 328 325 330 329
135 124 81 83 96 82 104 112 133 116 70 130 116 102 112 351 330 203 157 166 143 141 151 160 165 169 171 173 174 177 182 187 183 181 188 188 194 191 191 188 190 185 187 194 194 187 187 193 195 194 195 198 194 202 203 201 202 203 203 200 208 207 196 198 201 204 211 213 212 212 215 215 216 221 225 230 227 238 250 247 253 240 246 213 165 123 112 92 149 246 323 344 312 307 321 1 342
150 124 94 84 105 103 112 142 162 111 84 134 113 93 65 192 229 153 151 150 147 147 153 166 170 170 171 173 174 182 188 186 186 192 196 195 192 195 196 193 187 188 195 192 191 187 194 193 194 194 192 198 200 202 203 206 203 204 203 203 206 209 203 203 208 208 213 218 213 213 216 217 215 220 222 226 227 223 238 245 247 240 250 179 120 122 130 110 54 353 328 306 312 326 346 341 332
101 13 121 90 77 108 199 82 108 94 131 160 128 166 235 219 251 156 152 146 139 143 157 167 173 173 175 177 180 185 193 190 195 199 195 195 195 195 198 193 191 190 186 189 187 197 197 194 195 189 192 198 204 205 204 204 205 205 206 205 207 204 205 207 217 214 217 218 214 217 222 221 221 223 223 227 219 222 220 226 236 245 149 115 104 120 153 163 38 301 291 324 328 353 340 330 335
111 148 51 121 133 205 224 154 143 113 183 178 58 191 253 240 200 169 163 154 153 162 168 171 173 177 180 183 184 192 199 198 197 199 199 199 197 196 199 193 192 190 180 183 195 200 195 196 190 191 194 198 204 208 207 208 205 204 204 207 208 205 203 206 216 221 219 220 208 222 221 223 226 228 222 220 216 213 211 213 219 189 132 131 133 152 216 300 244 287 333 332 329 337 335 329 334
155 96 158 35 152 240 223 189 164 143 209 199 69 298 224 224 184 174 171 165 159 162 170 173 175 179 183 185 190 196 202 200 205 206 202 198 195 198 197 197 192 190 188 187 194 197 199 200 193 194 189 192 202 207 209 208 206 209 209 211 212 208 208 210 216 223 222 211 216 230 226 221 224 226 222 207 215 206 204 207 189 122 129 126 137 166 195 243 312 354 14 356 322 320 338 318 311
334 117 177 172 109 210 136 237 190 140 145 238 202 211 351 270 189 171 175 168 168 166 173 175 179 181 183 187 191 195 199 209 210 210 209 200 199 198 199 195 192 194 191 185 188 192 200 201 198 197 193 193 198 205 205 194 197 204 212 228 224 217 214 220 219 217 212 180 214 222 232 247 278 253 218 195 205 187 21 348 22 120 130 140 166 172 172 34 37 335 304 286 258 293 307 308 303
234 18 144 174 168 171 212 267 192 164 148 191 181 158 204 217 160 172 176 174 169 173 180 182 182 186 188 186 187 192 201 205 211 211 211 204 202 200 198 197 195 193 194 191 190 189 196 196 198 199 199 195 197 200 192 181 204 196 203 226 243 231 229 228 245 234 192 166 196 206 202 162 213 247 233 136 103 119 150 193 176 119 142 144 155 150 134 102 121 181 272 282 264 278 298 306 304
185 162 117 222 165 228 235 166 212 153 172 176 193 243 223 149 163 175 176 177 178 183 183 185 187 190 191 192 192 194 197 205 214 209 206 205 205 204 200 199 195 194 194 193 193 194 194 197 197 201 196 194 196 199 188 177 143 226 236 227 290 265 261 263 188 226 247 170 166 328 309 226 204 184 140 118 132 170 198 173 156 162 140 106 130 145 153 176 221 235 254 292 265 241 263 283 285
196 179 174 145 178 204 213 214 352 169 165 202 185 205 170 160 172 181 181 181 185 191 186 187 193 194 196 199 199 197 201 211 209 204 205 204 203 200 202 199 198 194 194 192 192 192 197 199 196 198 198 190 188 192 171 142 146 206 221 182 236 248 250 247 227 198 214 181 173 194 219 188 161 157 173 172 166 161 179 182 181 135 136 140 152 164 185 221 233 236 235 268 290 288 256 261 264
171 87 117 193 220 306 13 352 358 147 96 233 209 275 189 185 184 186 183 177 192 194 191 194 195 197 200 203 204 206 207 215 203 201 200 201 201 200 199 195 198 196 196 192 190 196 199 198 191 202 196 176 177 185 190 170 157 165 150 225 228 219 221 231 248 238 219 181 167 174 179 174 165 179 172 153 129 173 163 128 123 151 166 185 191 227 209 243 237 235 254 252 270 308 309 244 248
165 166 139 176 164 233 20 278 317 202 172 280 157 203 217 216 193 183 179 178 199 199 198 198 195 197 201 204 209 210 217 224 191 206 212 205 202 200 196 199 196 195 203 195 197 199 200 198 197 203 188 181 190 194 190 183 180 181 174 194 197 195 196 192 232 228 224 204 168 168 171 179 170 161 143 131 147 175 171 179 192 202 202 210 216 215 237 247 246 225 232 261 210 261 297 286 210
163 163 157 141 249 155 231 176 134 186 167 272 92 173 245 221 204 188 190 198 203 198 196 197 188 194 201 206 210 216 219 220 207 213 207 208 206 198 194 198 202 202 197 198 203 201 201 199 203 202 196 190 197 192 183 192 185 179 182 180 187 195 223 225 224 249 62 193 164 164 160 159 159 158 145 154 160 177 191 195 206 213 217 214 231 236 233 245 248 246 234 255 310 303 296 290 266
140 93 130 206 212 147 253 229 146 206 156 204 150 143 283 141 178 209 213 211 217 211 204 201 198 196 200 203 202 207 213 213 213 211 209 208 206 202 198 199 200 198 203 203 200 203 203 204 203 202 203 201 195 192 193 195 184 163 127 116 132 133 192 194 179 19 11 271 228 196 202 176 176 168 167 176 185 187 197 210 208 215 228 224 226 236 238 245 252 251 249 247 239 283 291 313 337
211 162 166 140 147 209 184 209 140 121 38 98 82 57 329 207 177 212 224 220 226 211 205 215 217 216 209 203 202 204 206 206 212 215 216 210 207 206 201 201 193 196 201 201 200 201 202 203 203 201 202 204 198 193 195 175 131 106 106 95 102 85 54 74 112 258 235 231 227 208 206 187 181 176 175 185 182 188 195 205 207 216 224 222 224 232 239 243 246 241 240 233 224 226 248 265 302
190 232 182 179 184 192 101 129 126 155 230 224 132 6 279 226 203 203 195 200 220 208 202 214 213 213 211 212 211 208 211 206 204 208 209 208 209 210 206 200 197 200 202 202 200 201 199 202 203 203 204 202 198 198 190 163 166 156 151 149 149 125 145 164 203 209 213 212 211 204 187 198 196 186 184 186 197 182 190 199 202 207 219 214 214 222 233 243 243 230 215 210 213 205 217 132 291
161 242 194 177 180 157 145 147 109 135 205 224 165 193 262 315 233 206 193 205 214 213 214 218 214 213 208 211 211 208 206 206 212 215 208 205 211 209 207 202 201 200 205 199 196 199 200 199 200 200 201 200 196 196 182 165 166 170 178 181 181 183 181 209 211 207 208 213 201 199 204 199 203 196 196 196 194 194 188 198 203 212 218 197 189 196 215 229 230 225 185 188 204 188 180 231 233
206 228 164 169 145 151 167 162 172 211 79 50 161 169 225 311 261 195 190 201 213 220 224 220 217 213 210 209 210 208 206 204 203 207 209 209 205 204 205 204 201 203 200 189 195 196 198 201 198 201 200 197 195 187 182 176 174 177 181 190 190 189 191 196 193 196 195 194 185 197 185 197 195 194 193 196 192 192 191 190 193 190 185 120 182 160 202 225 302 280 172 171 166 180 173 185 249
214 193 150 156 165 173 165 164 192 183 145 270 218 54 212 253 268 281 165 204 221 224 223 219 217 213 210 209 210 210 207 203 201 203 208 208 208 207 206 203 206 203 193 191 195 195 197 201 202 199 197 197 193 188 184 183 183 180 184 186 195 203 196 191 167 176 170 179 164 169 185 188 188 186 184 181 176 178 181 178 165 137 137 163 154 142 129 146 162 164 158 163 172 167 191 195 198
277 128 87 81 78 117 168 181 184 76 116 233 212 196 201 271 273 201 221 212 221 226 223 220 213 210 207 207 209 208 207 205 203 205 207 210 211 209 206 203 198 202 198 196 197 196 197 197 203 198 201 196 192 190 188 187 187 182 186 190 197 202 190 163 156 165 171 167 167 173 173 168 173 174 176 156 162 172 170 152 154 161 168 158 141 154 138 129 145 165 178 176 168 156 194 178 199
142 117 95 70 53 56 33 47 101 68 233 240 207 194 180 257 237 182 161 210 212 221 228 225 215 213 212 210 206 205 204 201 201 204 207 210 211 209 199 199 203 198 199 198 199 199 199 198 203 202 203 195 192 192 188 191 189 188 192 193 199 201 190 173 160 166 160 156 165 172 171 178 174 178 168 170 187 175 169 163 166 174 169 164 152 154 181 190 204 179 189 180 187 187 193 184 199
137 123 124 106 342 20 42 349 44 127 255 256 218 194 196 220 282 241 220 223 212 208 214 215 203 207 207 209 207 205 200 198 200 202 206 209 207 205 196 204 201 200 198 200 202 200 200 202 201 207 204 196 194 193 191 193 189 194 197 195 199 200 184 179 178 177 180 175 176 174 181 159 175 147 182 177 192 189 169 179 178 162 172 178 184 196 194 202 202 198 186 208 218 218 171 202 209
140 99 93 158 259 2 236 49 158 201 199 248 168 132 19 247 235 218 231 239 235 221 219 216 204 207 204 207 205 200 199 196 196 199 203 202 201 200 200 205 199 199 200 199 200 199 202 204 203 207 208 197 196 191 193 192 191 195 196 198 201 194 187 184 183 180 178 175 174 171 165 177 163 161 198 193 198 185 179 171 171 179 200 205 205 194 218 205 196 196 202 213 226 225 214 200 206
131 152 137 139 188 193 210 257 262 301 300 258 133 160 216 297 285 241 242 240 238 229 224 228 210 204 200 204 201 196 196 197 199 198 200 198 199 201 202 201 200 201 201 200 199 199 202 205 206 209 213 195 196 195 196 194 195 195 194 195 195 187 187 184 184 177 178 177 173 175 175 179 179 189 187 198 194 185 181 186 180 190 200 203 201 204 213 217 204 209 208 212 215 225 208 202 209
195 152 162 174 155 160 212 198 186 196 205 17 124 124 231 177 237 217 219 229 230 231 245 247 247 193 204 208 199 199 198 199 199 199 199 198 198 198 199 200 200 200 201 201 200 202 201 208 208 211 214 203 196 199 195 198 197 194 193 195 189 184 183 181 182 178 171 171 177 172 180 180 182 194 188 198 187 177 183 181 186 194 203 211 207 212 218 217 211 211 213 220 225 209 212 203 220
204 166 100 145 209 133 199 200 168 202 155 94 265 202 201 206 283 301 301 317 264 203 226 237 249 198 153 169 189 194 197 201 200 202 203 201 198 197 199 199 201 201 201 201 203 202 204 210 210 211 215 210 201 200 202 200 199 190 189 189 189 184 179 174 172 171 170 173 172 176 181 184 192 189 197 182 186 176 180 187 194 201 206 211 208 211 227 234 226 218 238 229 248 186 206 210 222
224 121 206 218 168 152 172 40 140 95 66 252 181 310 289 303 312 290 358 315 273 240 228 224 238 204 170 190 197 192 194 198 199 202 202 200 199 199 198 197 199 200 200 202 204 204 207 208 210 212 215 211 204 205 204 199 196 190 191 189 182 176 171 171 173 172 170 176 173 180 179 189 188 188 188 188 179 185 180 187 194 208 209 213 213 217 224 237 238 225 238 248 256 248 213 236 231
103 176 223 145 87 97 149 215 350 82 195 256 137 198 270 120 272 303 330 284 268 255 236 220 234 164 190 206 197 194 194 197 197 201 201 198 196 196 196 198 197 198 200 203 206 207 209 210 210 213 215 214 213 206 201 198 196 192 185 181 178 180 177 173 167 167 164 164 176 181 179 169 187 190 184 183 178 177 186 190 193 203 209 205 214 221 226 239 237 237 239 243 246 260 255 258 246
209 201 170 146 199 227 331 109 183 116 245 254 288 255 275 192 240 324 273 223 238 242 240 232 217 190 211 212 204 197 195 186 192 199 200 202 203 201 197 198 200 201 202 204 207 206 207 211 214 213 215 218 215 205 204 200 190 184 177 178 178 182 178 170 169 164 164 171 176 181 179 182 178 179 177 173 175 182 187 196 198 207 207 215 211 224 224 233 215 236 244 249 257 242 241 267 264
21 85 135 334 124 174 150 204 179 158 241 129 289 92 228 211 223 204 233 222 228 232 225 231 223 211 212 211 198 190 185 191 193 195 198 201 201 199 197 197 197 200 204 208 205 203 207 210 211 214 217 220 211 206 202 202 191 183 182 178 189 186 179 175 173 168 173 177 178 175 173 167 181 174 179 176 178 186 188 192 200 206 214 222 222 230 223 225 209 220 240 245 253 234 238 251 268
154 171 185 177 142 237 128 52 125 176 164 186 181 252 272 250 213 198 228 221 219 207 214 226 228 221 218 210 188 183 190 192 193 195 198 200 200 201 201 202 201 200 202 203 201 203 208 206 209 211 211 212 211 211 204 206 179 186 179 188 192 188 183 178 173 176 173 175 169 166 167 178 160 177 173 177 187 190 188 191 192 203 211 219 223 235 225 217 210 231 231 230 253 250 246 258 251
175 176 195 164 132 131 206 252 19 91 130 194 174 239 262 253 187 200 220 224 215 214 208 222 229 223 207 198 191 186 191 196 196 198 197 198 199 201 204 203 204 201 203 202 202 205 209 208 209 209 210 212 212 209 205 202 190 187 191 195 193 193 181 171 173 183 179 174 169 166 165 159 170 184 175 182 189 193 191 188 189 204 213 223 228 234 234 198 217 227 245 220 237 249 253 252 250